Location: Dvur Kralove nad Labem
(50.4330°N, 15.8170°E)
Time: 15:04:28
(UTC+02:00)

ISS - Pass Details

Date: 21 May 2018
Orbit: 402 x 407 km, 51.6° (Epoch: 24 May)

Event Time Altitude Azimuth Distance (km) Brightness Sun altitude
Rises 00:44:08 0° 266° (W) 2,317 0.0 -19.4°
Reaches altitude 10° 00:46:13 10° 268° (W) 1,457 -1.0 -19.4°
Maximum altitude 00:49:29 72° 353° (N) 427 -3.7 -19.4°
Drops below altitude 10° 00:52:45 10° 79° (E) 1,458 -0.9 -19.4°
Sets 00:54:50 0° 82° (E) 2,318 0.1 -19.4°
